Location: Ajisawe
(8.4333°N, 4.3833°E)
Time: 20:50:43
(UTC+00:00)

Vanguard 2 Rocket - Pass Details

Date: 25 April 2021
Orbit: 554 x 3326 km, 32.9° (Epoch: 16 May)

Event Time Altitude Azimuth Distance (km) Brightness Sun altitude
Rises 14:01:20 0° 296° (WNW) 6,519 11.8 55.1°
Reaches altitude 10° 14:06:21 10° 307° (NW) 5,816 11.7 53.9°
Maximum altitude 14:22:29 32° 4° (N) 4,697 11.0 49.9°
Drops below altitude 10° 14:38:46 10° 61° (ENE) 5,876 10.8 46.0°
Sets 14:43:51 0° 71° (ENE) 6,593 10.9 44.8°
